Weather History for KMKO - February, 2014

Change the Weather History Date:

Thursday, February 20, 2014

  Actual Average Record
Temperature  
Mean Temperature 54 °F -  
Max Temperature 71 °F 53 °F 78 °F (2005)
Min Temperature 36 °F 33 °F 24 °F (2000)
Degree Days  
Heating Degree Days 11    
Growing Degree Days 4 (Base 50)    
Moisture  
Dew Point 43 °F    
Average Humidity 60    
Maximum Humidity 83    
Minimum Humidity 35    
Precipitation  
Precipitation 0.00 in - - ()
Sea Level Pressure  
Sea Level Pressure 29.69 in    
Wind  
Wind Speed 19 mph (SW)    
Max Wind Speed 31 mph    
Max Gust Speed 43 mph    
Visibility 10 miles    
Events      
Averages and records for this station are not official NWS values.
T = Trace of Precipitation, MM = Missing Value Source: NWS Daily Summary

Daily Weather History Graph

Daily Weather History Graph

Search for Another Location

Airport or City:

Trip Planner

Search our weather history database for the weather conditions in past years. The results will help you decide how hot, cold, wet, or windy it might be!

Date:

Astronomy

Feb. 20, 2014 Rise Set
Actual Time 7:02 AM CST 6:08 PM CST
Civil Twilight 6:36 AM CST 6:34 PM CST
Nautical Twilight 6:06 AM CST 7:03 PM CST
Astronomical Twilight 5:37 AM CST 7:33 PM CST
Moon 11:50 PM CST (2/20) 9:58 AM CST (2/20)
Length of Visible Light 11h 57m
Length of Day
11h 05m
Waning Gibbous, 70% of the Moon is Illuminated
Feb 20
Waning Gibbous
Feb 22
Last Quarter
Mar 1
New
Mar 8
First Quarter
Mar 16
Full

Hourly Weather History & Observations

Time (CST) Temp. Windchill Dew Point Humidity Pressure Visibility Wind Dir Wind Speed Gust Speed Precip Events Conditions
12:53 AM 60.1 °F - 55.0 °F 83% 29.57 in 10.0 mi SSE 15.0 mph - N/A   Overcast
1:53 AM 60.1 °F - 55.0 °F 83% 29.54 in 10.0 mi SSE 10.4 mph - N/A   Overcast
2:24 AM 66.2 °F - 57.2 °F 73% 29.54 in 10.0 mi South 21.9 mph 31.1 mph N/A   Overcast
2:53 AM 66.0 °F - 57.0 °F 73% 29.51 in 10.0 mi South 17.3 mph 26.5 mph N/A   Overcast
3:53 AM 66.0 °F - 57.9 °F 75% 29.48 in 10.0 mi South 19.6 mph 32.2 mph N/A   Partly Cloudy
4:22 AM 66.2 °F - 57.2 °F 73% 29.48 in 10.0 mi South 24.2 mph 31.1 mph N/A   Mostly Cloudy
4:30 AM 66.2 °F - 57.2 °F 73% 29.48 in 10.0 mi South 20.7 mph 29.9 mph N/A   Mostly Cloudy
4:39 AM 66.2 °F - 57.2 °F 73% 29.47 in 10.0 mi South 24.2 mph 33.4 mph N/A   Mostly Cloudy
4:50 AM 64.4 °F - 57.2 °F 77% 29.47 in 10.0 mi South 19.6 mph 34.5 mph N/A   Mostly Cloudy
4:53 AM 64.9 °F - 57.9 °F 78% 29.45 in 10.0 mi South 20.7 mph 31.1 mph N/A   Mostly Cloudy
5:21 AM 66.2 °F - 57.2 °F 73% 29.47 in 10.0 mi South 25.3 mph 34.5 mph N/A   Mostly Cloudy
5:53 AM 66.9 °F - 57.9 °F 73% 29.46 in 10.0 mi South 19.6 mph 31.1 mph N/A   Overcast
6:27 AM 66.2 °F - 57.2 °F 73% 29.48 in 10.0 mi South 24.2 mph 35.7 mph N/A   Mostly Cloudy
6:53 AM 66.9 °F - 57.9 °F 73% 29.47 in 10.0 mi SSW 26.5 mph 42.6 mph N/A   Partly Cloudy
7:53 AM 66.0 °F - 57.9 °F 75% 29.48 in 10.0 mi SSW 25.3 mph 36.8 mph N/A   Clear
8:53 AM 69.1 °F - 57.0 °F 65% 29.52 in 10.0 mi SW 20.7 mph 33.4 mph N/A   Clear
9:53 AM 71.1 °F - 45.0 °F 39% 29.58 in 10.0 mi West 31.1 mph 40.3 mph N/A   Partly Cloudy
10:53 AM 62.1 °F - 37.0 °F 39% 29.68 in 10.0 mi West 26.5 mph 36.8 mph N/A   Partly Cloudy
11:53 AM 55.9 °F - 36.0 °F 47% 29.77 in 10.0 mi WNW 28.8 mph 41.4 mph N/A   Clear
12:53 PM 54.0 °F - 34.0 °F 47% 29.82 in 10.0 mi WNW 26.5 mph 36.8 mph N/A   Mostly Cloudy
1:53 PM 53.1 °F - 33.1 °F 47% 29.86 in 10.0 mi NW 21.9 mph 31.1 mph N/A   Scattered Clouds
2:53 PM 55.0 °F - 30.0 °F 38% 29.88 in 10.0 mi NNW 21.9 mph 29.9 mph N/A   Mostly Cloudy
3:53 PM 55.0 °F - 30.9 °F 40% 29.91 in 10.0 mi NW 20.7 mph 26.5 mph N/A   Mostly Cloudy
4:53 PM 53.1 °F - 26.1 °F 35% 29.93 in 10.0 mi NW 20.7 mph 26.5 mph N/A   Partly Cloudy
5:53 PM 50.0 °F - 26.1 °F 39% 29.94 in 10.0 mi NW 8.1 mph - N/A   Clear
6:53 PM 44.1 °F 40.8 °F 24.1 °F 45% 29.97 in 10.0 mi WNW 5.8 mph - N/A   Clear
7:53 PM 43.0 °F 38.2 °F 23.0 °F 45% 30.01 in 10.0 mi West 8.1 mph - N/A   Clear
8:53 PM 39.0 °F 34.0 °F 21.9 °F 50% 30.02 in 10.0 mi West 6.9 mph - N/A   Clear
9:53 PM 37.0 °F 31.6 °F 19.9 °F 50% 30.03 in 10.0 mi West 6.9 mph - N/A   Clear
10:53 PM 39.0 °F 33.4 °F 19.0 °F 45% 30.05 in 10.0 mi West 8.1 mph - N/A   Clear
11:53 PM 36.0 °F 28.5 °F 18.0 °F 48% 30.06 in 10.0 mi West 10.4 mph - N/A   Clear